www.pogodaiklimat.ru

Погода и климат >> Архив погоды >> Россия >> Хабаровский край >> Удское


ПОГОДА в Удском

  • Прогноз погоды в Удском
  • Монитор погоды в Удском

АРХИВ ПОГОДЫ в Удском

Время (UTC), дата Ветер
(напр.,м/с)
 
Видим.   Явления Облачность Т
(С)
Тd
(С)
f
(%)
Тe
(С)
Тes
(С)
Комфортность P
(гПа)
Po
(гПа)
Тmin
(С)
Tmax
(С)
R
(мм)
R24
(мм)
S
(см)
18 17.06 В 1 20 км 10/4 300 м
[St As op]
+4.9 +4.0 94 +3 +3 1011.1 1003.5
21 17.06 С 1 20 км 10/4 300 м
[St As op]
+5.0 +3.8 92 +4 +4 1009.3 1001.7 +4.6
00 18.06 СВ 1 20 км 10/8 300 м
[St As op]
+5.3 +4.1 92 +4 +4 1008.5 1000.9
03 18.06 В 2 20 км {дождь} 10/8 600 м
[Cb cap As op]
+7.0 +4.2 82 +5 +6 1006.4 998.9
06 18.06 С 3 50 км слаб. дождь 10/8 1000 м
[Cb cap As op]
+7.2 +3.2 76 +4 +5 1006.3 998.8
09 18.06 С 2 20 км дождь 10/8 600 м
[Cb cap As op]
+4.6 +4.1 97 +2 +2 1006.8 999.2 +7.6 1
12 18.06 С 2 50 км {дождь} 10/6 1000 м
[Cb cap As op]
+5.1 +3.2 88 +2 +2 1008.3 1000.7
15 18.06 С 1 50 км 9/8 1000 м
[Cb cap As op]
+5.3 +2.6 83 +4 +4 1008.5 1000.9
18 18.06 С 1 50 км 8/5 1000 м
[Sc Ci fib]
+3.9 +2.1 88 +2 +2 1007.1 999.5
21 18.06 С 1 50 км 6/1 1000 м
[Cu hum Ac lent Ci]
+7.2 +3.2 76 +6 +8 1006.8 999.3 +3.5 0.9
00 19.06 СВ 3 50 км 8/8 1000 м
[Sc Ac und]
+13.2 +5.0 58 +12 +14 1007.5 1000.1
03 19.06 С 3 50 км 9/5 600 м
[Cb cap Ac und]
+14.8 +6.1 56 +14 +17 1008.6 1001.2
06 19.06 С 3 50 км 9/5 600 м
[Cb cap Ac und Cc]
+15.0 +5.8 54 +14 +17 1019.1 1001.7
09 19.06 СВ 3 50 км 10/5 300 м
[Sc Cs]
+11.5 +8.3 81 +10 +11 1010.5 1003.1 +16.0
12 19.06 СВ 2 50 км {дождь} 9/9 600 м
[Sc]
+9.4 +8.2 92 +8 +8 1011.3 1003.8
15 19.06 С 1 50 км 9/9 1000 м
[Sc]
+9.2 +8.0 92 +8 +8 1011.4 1003.9
18 19.06 штиль 0 50 км 9/9 1000 м
[Sc]
+9.2 +8.2 93 +8 +8 1011.7 1004.2
21 19.06 штиль 0 50 км 9/9 1000 м
[Sc]
+10.7 +8.9 89 +10 +10 1013.7 1006.1 +8.8 0.0
00 20.06 С 1 50 км 10/8 600 м
[Cb cap Ac trans]
+14.8 +10.2 74 +15 +16 1013.6 1006.2
03 20.06 В 1 50 км 9/4 600 м
[Cb cap Ac lent]
+20.0 +10.7 55 +23 +26 комфорт 1012.4 1005.1
06 20.06 В 1 50 км 8/3 600 м
[Cb cap Ac lent Cc]
+21.4 +10.2 49 +23 +29 комфорт 1010.7 1003.6
09 20.06 В 1 50 км 3/3 1000 м
[Cu med, cong Cc]
+21.1 +10.3 50 +23 +25 комфорт 1011.3 1004.2 +21.8
12 20.06 СВ 1 50 км 3/3 1000 м
[Sc]
+14.7 +9.7 72 +15 +15 1012.2 1004.8
15 20.06 штиль 0 50 км 5/3 1000 м
[Sc Cc]
+6.3 +5.9 97 +5 +5 1013.0 1005.3
18 20.06 штиль 0 50 км 8/3 1000 м
[Sc Ac trans]
+5.2 +4.7 97 +4 +4 1012.8 1005.1
21 20.06 штиль 0 50 км 9/4 1000 м
[Sc Ac lent]
+9.4 +8.6 95 +9 +9 1011.7 1004.2 +5.0
00 21.06 штиль 0 50 км 10/8 1000 м
[Sc Ac lent Cs]
+16.6 +10.4 67 +17 +18 1011.5 1004.3
03 21.06 В 1 50 км 10/4 1000 м
[Cu hum Ac cuf Cc]
+23.3 +11.6 48 +26 +31 жарко 1010.4 1003.3
06 21.06 В 1 50 км 10/4 600 м
[Cb cap Ac lent Cc]
+26.6 +12.1 41 +28 +32 жарко 1009.3 1002.3
09 21.06 СВ 2 50 км 8/4 1000 м
[Sc Ac trans Ci fib]
+18.5 +10.1 58 +19 +20 1009.6 1002.4 +27.2
12 21.06 В 2 50 км 8/6 1000 м
[Sc Cs]
+10.8 +8.4 85 +9 +9 1012.0 1004.5
15 21.06 С 2 50 км 5/5 1000 м
[Sc]
+8.2 +6.9 92 +6 +6 1013.1 1005.5
18 21.06 В 2 20 км 10/10 600 м
[Sc]
+7.2 +5.9 91 +5 +5 1014.4 1006.8
21 21.06 СВ 2 20 км {дождь} 10/9 300 м
[Sc As op]
+7.2 +6.3 94 +5 +5 1014.6 1007.0 +6.8 2
00 22.06 СВ 3 20 км 10/9 600 м
[Sc Ci fib]
+10.4 +7.0 79 +8 +9 1015.0 1007.4
03 22.06 СВ 3 20 км 9/8 600 м
[Cb cap Ac trans]
+10.6 +6.3 75 +9 +11 1015.2 1007.6
06 22.06 СВ 3 50 км {ливн. осадки} 10/9 600 м
[Cb cap Ac trans]
+9.7 +7.4 86 +7 +8 1015.2 1007.6
09 22.06 СВ 3 20 км {ливн. осадки} 10/10 300 м
[Cb cap]
+6.8 +5.9 94 +4 +4 1015.5 1007.9 +11.5 0.5
12 22.06 СВ 3 4000 м слаб. морось 10/10 300 м
[St]
+6.0 +5.3 95 +3 +3 1016.9 1009.2
15 22.06 СВ 2 2000 м слаб. морось 10/10 300 м
[St]
+5.7 +5.2 97 +3 +3 1016.7 1009.0
18 22.06 СВ 2 2000 м слаб. морось 10/10 300 м
[St]
+5.8 +5.3 97 +3 +3 1013.6 1008.6
21 22.06 С 1 2000 м слаб. морось 10/10 300 м
[St]
+6.2 +5.5 95 +5 +5 1016.5 1008.8 +5.6 0.1
00 23.06 В 2 2000 м слаб. морось 10/10 300 м
[St]
+6.5 +6.1 97 +4 +4 1015.9 1008.3
03 23.06 С 1 2000 м слаб. морось 10/10 300 м
[St]
+7.2 +6.5 95 +6 +6 1015.4 1007.8
06 23.06 С 1 2000 м слаб. морось 10/10 300 м
[St]
+6.9 +6.5 97 +6 +6 1014.5 1006.9
09 23.06 С 2 4000 м слаб. дождь {морось} 10/8 300 м
[St As op]
+6.7 +6.0 95 +4 +4 1014.4 1006.8 +7.7 0.9
12 23.06 СВ 1 4000 м слаб. морось {дождь} 10/10 300 м
[St]
+6.0 +5.8 99 +5 +5 1015.5 1007.8
15 23.06 С 2 2000 м слаб. морось 10/10 300 м
[St]
+6.0 +5.8 99 +3 +3 1015.3 1007.6
18 23.06 С 2 2000 м слаб. морось 10/10 300 м
[St]
+5.8 +5.6 99 +3 +3 1015.3 1007.6
21 23.06 С 2 2000 м слаб. морось {дождь} 10/10 300 м
[St]
+5.1 +4.6 97 +2 +2 1014.4 1006.7 +5.0 4
00 24.06 С 2 4000 м слаб. морось {дождь} 10/10 300 м
[St]
+6.9 +6.2 95 +5 +5 1014.4 1006.8
03 24.06 С 2 4000 м слаб. морось 10/10 300 м
[St]
+8.1 +6.4 89 +6 +6 1014.0 1006.4
06 24.06 С 2 4000 м слаб. морось {дождь} 10/10 300 м
[St]
+7.5 +6.6 94 +5 +5 1013.7 1005.7
09 24.06 С 2 4000 м дождь {морось} 10/9 300 м
[Frnb As op]
+6.3 +6.1 99 +4 +4 1012.9 1005.2 +8.9 4
12 24.06 С 2 4000 м дождь 10/10 300 м
[Frnb Ns]
+5.9 +5.7 99 +3 +3 1011.7 1004.1
15 24.06 С 2 4000 м дождь 10/10 300 м
[Frnb Ns]
+5.0 +4.8 99 +2 +2 1010.9 1003.3

 

Местоположение метеостанции Удское (Хабаровский край, Россия): широта 54.50 долгота 134.40 высота над уровнем моря 62 м.

В архиве по умолчанию представлена погода в Удском за последнюю неделю. Архивные данные за месяц целиком и за предыдущие месяцы, начиная с января 2011 года, Вы можете получить, выбрав интересующий диапазон дат из раскрывающегося списка и нажав кнопку "Ввод!".


*Определитесь, кто Вы:
робот инопланетянин человек

Внимание! Время в таблицах - всемирное. Для получения местного времени необходимо прибавить поправку, которая равна 10 ч.

Смотрите также архив погоды в соседних городах и на ближайших метеорологических станциях:

Погода в Чумикане (Хабаровский край, Россия) (63 км)
Погода в Джане (Хабаровский край, Россия) (91 км)
Погода в Экимчане (Амурская область, Россия) (186 км)
Погода в Бурукане (Хабаровский край, Россия) (193 км)
Погода в Большом Шантаре (Хабаровский край, Россия) (203 км)
Погода в Софийском Прииске (Хабаровский край, Россия) (250 км)
Погода в Локшаке (Амурская область, Россия) (259 км)
Погода в Стойбе (Амурская область, Россия) (260 км)
Погода в Веселой Горке (Хабаровский край, Россия) (262 км)
Погода в Им. Полины Осипенко (Хабаровский край, Россия) (270 км)

Пояснения к столбцам:

Ветер - указаны скорость ветра в м/с - средняя за 10 мин, порывы в срок и между сроками (в фигурных скобках) и направление, откуда дует ветер: С - северный, СВ - северо-восточный, В - восточный, ЮВ - юго-восточный, Ю - южный, ЮЗ - юго-западный, З - западный, СЗ - северо-западный.
Видимость - горизонтальная дальность видимости в метрах или километрах. При видимости от 1 до 10 км при отсутствии осадков обычно наблюдается дымка, при ухудшении видимости до 1 км и менее - туман. В сухую погоду видимость может ухудшаться дымом, пылью или мглою.
Явления - указаны атмосферные явления, наблюдавшиеся в срок или в последний час перед сроком; фигурными скобками обозначены явления, наблюдавшиеся между сроками (за 1-3 часа до срока); квадратными скобками обозначены град или гололедные отложения с указанием их диаметра в мм.
Облачность - указаны через наклонную черту общая и нижняя облачность в баллах и высота нижней границы облаков в метрах; квадратными скобками обозначены формы облаков: Ci - перистые, Cs - перисто-слоистые, Cc - перисто-кучевые, Ac - высококучевые, As - высокослоистые, Sc - слоисто-кучевые, Ns - слоисто-дождевые, Cu - кучевые, Cb - кучево-дождевые. Подробнее классификацию облаков см. в Атласе облаков (PDF).
T - Температура воздуха - температура, измеренная на высоте 2 м над землей.
Td - Температура точки росы - температура, при понижении до которой содержащийся в воздухе водяной пар достигнет насыщения.
f - Относительная влажность воздуха - влажноcть воздуха, измеренная на высоте 2 м над землей.
Te - Эффективная температура - температура, которую ощущает одетый по сезону человек в тени. Характеристика душности погоды. При расчете учитывается влияние влажности воздуха и скорости ветра на теплоощущения человека.
Tes - Эффективная температура на солнце - температура, которую ощущает человек, с поправкой на солнечный нагрев. Характеристика знойности погоды. Зависит от высоты солнца над горизонтом, облачности и скорости ветра. Ночью, в пасмурную погоду, а также при ветре 12 м/с и более поправка равна нулю.
P - Атмосферное давление - приведенное к уровню моря атмосферное давление.
Po - Атмосферное давление - измеренное на уровне метеостанции атмосферное давление.
Tmin - Минимальная температура - минимум температуры воздуха на высоте 2 м над землей.
Tmax - Максимальная температура - максимум температуры воздуха на высоте 2 м над землей.
R - Количество осадков - Количество выпавших осадков за период времени, мм. При наведении курсора мыши на число - период времени, за который выпало указанное количество осадков.
R24 - Количество осадков - Количество выпавших осадков за 24 часа, мм.
S - Снежный покров - Высота снежного покрова, см. При наведении курсора мыши на число - состояние снежного покрова и степень покрытия местности в баллах.